Probability
0 0 0 0 0 0 0 0 0 0 0 0 0 0 0 0 0 0 0 0 0 0 0 0 0 0 0 0 0 0 0 0 0 0 0 0 0 0 0 0 0 0 0
1 1 0 0 0 0 0 0 0 0 0 0 0 0 0 0 0 0 0 0 0 0 0 0 0 0 0 0 0 0 0 0 0 0 0 0 0 0 0 0 0 0 0
2 2 1 0 0 0 0 0 0 0 0 0 0 0 0 0 0 0 0 0 0 0 0 0 0 0 0 0 0 0 0 0 0 0 0 0 0 0 0 0 0 0 0
3 2 1 0 0 0 0 0 0 0 0 0 0 0 0 0 0 0 0 0 0 0 0 0 0 0 0 0 0 0 0 0 0 0 0 0 0 0 0 0 0 0 0
2 1 0 0 0 0 0 0 0 0 0 0 0 0 0 0 0 0 0 0 0 0 0 0 0 0 0 0 0 0 0 0 0 0 0 0 0 0 0 0 0 0 0
2 1 0 0 0 0 0 0 0 0 0 0 0 0 0 0 0 0 0 0 0 0 0 0 0 0 0 0 0 0 0 0 0 0 0 0 0 0 0 0 0 0 0
2 1 0 0 0 0 0 0 0 0 0 0 0 0 0 0 0 0 0 0 0 0 0 0 0 0 0 0 0 0 0 0 0 0 0 0 0 0 0 0 0 0 0
2 1 0 0 0 0 0 0 0 0 0 0 0 0 0 0 0 0 0 0 0 0 0 0 0 0 0 0 0 0 0 0 0 0 0 0 0 0 0 0 0 0 0
2 1 0 0 0 0 0 0 0 0 0 0 0 0 0 0 0 0 0 0 0 0 0 0 0 0 0 0 0 0 0 0 0 0 0 0 0 0 0 0 0 0 0
2 1 0 0 0 0 0 0 0 0 0 0 0 0 0 0 0 0 0 0 0 0 0 0 0 0 0 0 0 0 0 0 0 0 0 0 0 0 0 0 0 0 0
2 1 0 0 0 0 0 0 0 0 0 0 0 0 0 0 0 0 0 0 0 0 0 0 0 0 0 0 0 0 0 0 0 0 0 0 0 0 0 0 0 0 0
2 1 0 0 0 0 0 0 0 0 0 0 0 0 0 0 0 0 0 0 0 0 0 0 0 0 0 0 0 0 0 0 0 0 0 0 0 0 0 0 0 0 0
1 0 0 0 0 0 0 0 0 0 0 0 0 0 0 0 0 0 0 0 0 0 0 0 0 0 0 0 0 0 0 0 0 0 0 0 0 0 0 0 0 0 0
0 0 0 0 0 0 0 0 0 0 0 0 0 0 0 0 0 0 0 0 0 0 0 0 0 0 0 0 0 0 0 0 0 0 0 0 0 0 0 0 0 0 0
0 0 0 0 0 0 0 0 0 0 0 0 0 0 0 0 0 0 0 0 0 0 0 0 0 0 0 0 0 0 0 0 0 0 0 0 0 0 0 0 0 0 0
0 0 0 0 0 0 0 0 0 0 0 0 0 0 0 0 0 0 0 0 0 0 0 0 0 0 0 0 0 0 0 0 0 0 0 0 0 0 0 0 0 0 0
0 0 0 0 0 0 0 0 0 0 0 0 0 0 0 0 0 0 0 0 0 0 0 0 0 0 0 0 0 0 0 0 0 0 0 0 0 0 0 0 0 0 0
0 0 0 0 0 0 0 0 0 0 0 0 0 0 0 0 0 0 0 0 0 0 0 0 0 0 0 0 0 0 0 0 0 0 0 0 0 0 0 0 0 0 0
0 0 0 0 0 0 0 0 0 0 0 0 0 0 0 0 0 0 0 0 0 0 0 0 0 0 0 0 0 0 0 0 0 0 0 0 0 0 0 0 0 0 0
0 0 0 0 0 0 0 0 0 0 0 0 0 0 0 0 0 0 0 0 0 0 0 0 0 0 0 0 0 0 0 0 0 0 0 0 0 0 0 0 0 0 0
0 0 0 0 0 0 0 0 0 0 0 0 0 0 0 0 0 0 0 0 0 0 0 0 0 0 0 0 0 0 0 0 0 0 0 0 0 0 0 0 0 0 0
0 0 0 0 0 0 0 0 0 0 0 0 0 0 0 0 0 0 0 0 0 0 0 0 0 0 0 0 0 0 0 0 0 0 0 0 0 0 0 0 0 0 0
0 0 0 0 0 0 0 0 0 0 0 0 0 0 0 0 0 0 0 0 0 0 0 0 0 0 0 0 0 0 0 0 0 0 0 0 0 0 0 0 0 0 0
0 0 0 0 0 0 0 0 0 0 0 0 0 0 0 0 0 0 0 0 0 0 0 0 0 0 0 0 0 0 0 0 0 0 0 0 0 0 0 0 0 0 0
0 0 0 0 0 0 0 0 0 0 0 0 0 0 0 0 0 0 0 0 0 0 0 0 0 0 0 0 0 0 0 0 0 0 0 0 0 0 0 0 0 0 0
0 0 0 0 0 0 0 0 0 0 0 0 0 0 0 0 0 0 0 0 0 0 0 0 0 0 0 0 0 0 0 0 0 0 0 0 0 0 0 0 0 0 0
Wind_Speed
5 4 4 4 4 4 3 4 4 3 3 4 4 3 3 3 3 3 3 3 3 2 2 2 1 1 1 1 1 1 1 2 2 0 1 2 2 2 2 2 2 2 3
5 5 5 4 4 4 4 3 3 3 3 3 4 4 3 3 3 4 4 3 3 3 2 2 1 1 2 1 1 1 1 1 3 2 1 1 1 1 1 2 2 2 2
5 5 4 4 5 4 4 3 4 4 3 3 3 4 4 3 3 3 3 3 3 3 2 2 2 3 2 1 1 1 1 2 2 3 1 1 1 1 2 2 2 2 2
5 5 5 5 5 5 4 4 4 4 4 4 3 3 3 3 3 3 3 3 3 2 2 2 2 3 3 2 2 2 2 3 3 3 1 1 1 1 1 1 2 2 2
5 6 6 5 4 4 4 4 4 4 4 4 4 3 3 3 3 4 4 4 3 3 2 2 2 3 4 3 3 3 3 3 3 2 1 1 1 1 0 0 0 1 2
5 5 5 5 5 4 4 4 4 4 3 3 3 3 3 2 5 6 5 4 3 3 3 2 2 2 3 4 5 6 6 4 3 2 1 1 1 1 0 1 0 1 2
5 5 5 5 5 4 4 4 4 4 3 3 3 3 3 3 6 6 7 4 4 3 3 2 2 2 2 2 4 5 4 4 5 4 3 2 2 2 2 1 1 1 1
5 5 5 5 5 4 4 4 3 3 3 3 3 3 3 3 6 7 7 4 3 3 2 2 2 2 2 3 4 4 3 2 2 2 2 2 2 2 3 2 2 1 0
5 5 5 6 6 5 5 4 3 3 3 3 3 3 3 3 5 7 7 4 3 2 2 2 3 2 4 5 5 4 2 2 3 4 4 3 3 3 3 3 2 2 1
6 6 6 6 7 6 5 4 3 3 3 3 2 2 3 3 5 7 8 4 3 2 1 1 3 3 5 6 4 4 3 1 1 3 4 4 3 3 3 2 2 1 0
5 5 5 5 6 6 5 4 4 4 3 3 2 1 2 3 4 7 8 4 4 3 2 1 1 4 5 6 5 3 4 4 2 3 2 2 2 2 2 1 1 1 1
5 5 5 5 5 5 5 4 4 5 4 3 3 2 1 1 3 5 7 6 5 4 3 2 2 5 5 5 4 4 5 5 3 3 2 1 1 1 1 1 1 1 0
5 5 5 5 4 5 6 5 4 4 4 3 3 2 1 1 1 4 6 7 6 3 2 4 4 5 4 3 4 5 5 3 3 2 1 0 1 1 1 1 2 2 2
6 5 5 5 5 4 4 5 5 5 4 4 4 3 2 2 2 2 2 3 4 3 2 4 5 5 4 3 3 2 2 2 3 2 1 1 0 1 1 1 1 1 1
6 5 5 5 5 5 4 3 5 5 6 6 5 5 5 4 5 7 6 4 4 4 4 3 2 2 2 1 1 1 1 2 1 1 1 1 0 0 1 1 0 1 0
5 5 5 4 4 4 4 2 1 2 4 5 5 5 4 5 7 8 8 7 8 9 6 3 2 2 3 2 2 1 1 2 2 2 2 1 1 1 0 0 0 0 1
6 6 4 5 5 5 5 5 3 1 2 3 5 5 5 6 7 7 8 8 8 10 4 3 3 3 3 3 2 2 2 2 2 2 2 2 1 1 0 0 0 1 1
5 6 6 5 5 5 5 5 4 5 3 1 2 5 6 7 7 7 9 7 4 4 3 3 3 3 3 3 3 3 2 2 2 2 2 2 2 1 1 1 1 2 2
5 4 5 5 4 4 4 4 4 4 4 3 2 2 4 5 6 7 8 4 4 4 3 3 3 3 3 3 3 3 3 3 2 2 2 2 2 2 2 2 2 2 2
4 6 6 5 5 4 4 4 4 4 4 4 4 3 3 3 3 4 3 3 3 4 4 3 3 3 3 3 3 3 3 2 3 2 2 2 2 2 3 3 2 2 2
4 5 7 5 5 5 5 5 5 5 5 4 4 5 7 5 5 5 4 4 4 4 4 4 3 3 3 3 3 3 4 3 3 3 2 2 2 2 2 2 2 3 2
4 5 5 5 5 5 5 5 5 5 5 5 3 4 8 4 4 4 4 4 3 3 3 3 3 3 4 4 4 4 4 3 3 3 3 2 2 2 2 2 2 2 2
5 5 5 4 4 5 5 4 5 5 5 5 5 4 5 4 4 4 4 3 3 3 3 3 3 3 3 3 4 4 5 5 4 4 4 3 3 3 3 3 3 3 3
5 5 5 5 4 5 5 5 5 5 5 5 5 5 5 5 5 5 4 3 3 3 3 3 3 4 5 4 3 3 3 3 3 4 5 4 4 3 3 3 3 4 4
5 5 5 5 5 5 5 5 5 5 5 5 5 5 5 4 4 4 4 4 4 3 4 3 3 4 5 5 4 4 5 5 4 3 3 4 4 4 3 3 3 3 3
5 6 5 5 5 5 5 5 5 5 5 5 5 5 5 5 4 4 4 4 4 4 3 3 4 4 4 4 5 6 6 6 6 5 3 3 3 3 3 3 3 3 3
Wind_Direction
178 181 181 183 176 171 175 181 174 164 159 156 155 150 154 147 138 129 129 131 126 112 106 112 99 90 96 92 98 98 99 126 146 279 354 3 34 39 25 31 42 36 33
179 180 182 173 163 170 176 179 161 154 154 157 154 154 158 153 149 149 147 138 134 130 125 117 119 108 88 92 99 108 115 125 144 154 8 13 29 26 26 37 31 36 33
173 174 176 170 169 178 178 171 162 158 151 149 150 154 158 159 153 153 148 140 135 137 139 137 144 126 109 104 102 103 98 93 103 131 100 34 32 34 36 31 29 11 18
170 172 182 186 181 181 174 168 167 162 154 156 156 155 156 156 154 146 141 136 131 128 130 138 142 143 150 144 127 124 112 98 97 107 95 46 28 10 53 37 12 5 2
171 177 190 186 173 162 159 159 157 156 155 155 149 147 146 152 161 151 147 143 140 130 115 113 127 146 150 146 138 142 128 113 106 107 104 71 30 39 22 338 5 341 348
173 182 177 167 162 162 161 152 147 144 144 144 149 153 156 169 162 158 149 142 142 140 132 111 104 97 113 120 126 134 137 137 144 135 137 152 231 223 180 123 113 34 327
174 172 163 160 160 163 157 149 152 157 148 145 156 157 159 166 160 153 150 142 144 149 144 124 102 91 97 104 100 97 98 115 144 154 157 196 203 207 163 140 160 169 237
171 166 162 158 157 152 149 156 160 155 156 159 161 165 161 170 160 152 143 131 125 127 131 141 143 143 129 125 114 95 78 65 101 126 156 192 186 177 175 173 175 167 297
176 172 169 163 159 156 160 163 158 149 153 157 161 165 166 176 160 152 139 127 121 125 131 138 149 151 147 134 122 116 89 48 64 82 85 81 81 99 119 104 90 83 345
186 179 171 167 164 167 169 158 146 145 150 147 149 166 174 178 167 157 144 136 134 135 115 134 157 154 147 141 137 137 139 171 93 67 53 41 40 52 81 112 147 134 168
180 165 164 167 167 164 157 150 145 140 131 132 135 141 165 176 169 162 153 151 157 152 155 173 178 157 149 146 143 150 165 148 121 102 76 46 38 35 28 30 97 157 169
158 160 164 161 159 152 150 149 147 144 141 143 137 133 150 175 169 170 166 161 153 153 176 187 172 156 149 145 143 141 134 121 109 99 85 55 30 6 352 4 15 28 95
155 161 164 158 155 154 154 151 147 152 156 164 163 165 175 175 172 166 168 165 159 154 162 154 148 148 143 138 135 134 128 118 118 114 126 221 263 281 345 13 14 22 19
162 164 162 161 157 156 159 161 162 167 168 172 176 179 177 175 180 165 160 158 153 145 127 119 119 118 115 114 113 119 120 136 141 155 174 211 5 33 25 20 11 1 9
165 164 163 168 164 164 167 175 178 185 184 179 186 182 178 192 200 178 168 172 170 158 126 98 93 97 103 95 94 107 118 121 137 153 157 152 127 61 339 4 34 40 18
169 169 166 165 166 163 156 132 88 160 179 182 176 172 185 183 169 170 173 170 160 149 131 137 154 166 174 177 174 173 169 178 189 182 179 185 190 201 260 0 32 55 293
177 176 169 167 169 168 167 163 156 105 112 153 168 170 167 162 165 166 164 161 158 151 146 167 178 186 191 188 187 187 196 201 189 185 187 192 194 202 218 250 280 295 285
178 176 169 170 174 175 176 176 171 166 165 179 185 178 171 167 165 159 150 136 146 167 178 182 190 191 192 193 194 195 190 177 183 193 192 191 191 201 219 232 236 250 267
179 177 173 167 168 172 170 168 168 172 172 166 147 163 171 163 158 157 151 157 174 185 193 194 193 192 194 194 194 188 185 189 192 192 198 202 199 200 219 231 238 260 267
184 178 168 164 162 163 164 166 173 177 175 174 180 178 153 138 154 171 178 183 186 191 193 193 195 194 194 191 185 181 187 193 192 200 205 206 211 209 215 222 229 242 248
175 176 172 167 170 175 176 180 181 181 183 187 195 184 169 173 182 185 188 193 196 198 197 193 193 194 193 187 184 188 194 201 201 204 206 208 209 223 227 218 223 231 240
173 173 175 177 177 179 181 182 180 183 187 187 185 179 179 174 180 185 193 201 203 201 192 185 192 195 193 192 191 193 199 205 204 203 207 208 210 217 219 225 228 232 238
172 172 174 178 178 179 182 183 183 186 189 190 184 179 182 189 190 192 195 196 192 191 185 181 188 196 195 195 195 194 199 206 207 202 199 203 208 212 215 223 230 237 242
173 175 179 181 180 183 186 187 189 190 190 189 188 187 189 192 192 191 190 186 185 188 188 189 194 199 197 194 197 200 205 206 200 198 195 197 203 208 211 223 233 242 244
177 179 182 184 186 187 188 188 189 190 191 191 190 190 189 188 189 188 184 180 180 189 191 190 194 197 200 200 200 204 205 197 192 187 185 190 197 203 210 221 229 241 250
182 183 185 186 188 187 187 191 193 193 193 193 191 188 186 187 188 186 181 179 182 189 191 193 197 198 200 203 207 206 201 195 190 183 174 180 190 203 207 219 228 233 242